{"data":{"norad_id":65541,"epoch":"2026-05-25T03:09:46.287936Z","epoch_age_seconds":60774,"freshness":"FRESH","line1":"1 65541U 25200X   26145.13178574 -.00014836  00000+0 -10276-2 0  9995","line2":"2 65541  97.4504 214.7869 0001648 126.3840 233.7540 15.05603572 40633","mean_motion":15.05603572,"eccentricity":0.0001648,"inclination_deg":97.4504,"raan_deg":214.7869,"arg_perigee_deg":126.384,"mean_anomaly_deg":233.754,"bstar":-0.0010276,"rev_number":4063,"period_min":95.642706139913,"perigee_km":548.5118710997,"apogee_km":550.7952708719,"semimajor_km":6927.7905709858,"source":"CELESTRAK","updated_at":"2026-05-25T13:38:20.850880Z"}}